Weather History for Natchitoches, LA

Change the Weather History Date:

Friday, April 12, 2013

  Actual Average Record
Temperature  
Mean Temperature 56 °F -  
Max Temperature 74 °F 77 °F 91 °F (1948)
Min Temperature 39 °F 54 °F 32 °F (1989)
Degree Days  
Heating Degree Days 8    
Growing Degree Days 6 (Base 50)    
Moisture  
Dew Point 46 °F    
Average Humidity 74    
Maximum Humidity 100    
Minimum Humidity 35    
Precipitation  
Precipitation 0.01 in - - ()
Sea Level Pressure  
Sea Level Pressure 29.96 in    
Wind  
Wind Speed 1 mph (North)    
Max Wind Speed 7 mph    
Max Gust Speed -    
Visibility 9 miles    
Events      
Averages and records for this station are not official NWS values.
T = Trace of Precipitation, MM = Missing Value Source: NWS Daily Summary

Daily Weather History Graph

Daily Weather History Graph

Search for Another Location

Airport:

Trip Planner

Search our weather history database for the weather conditions in past years. The results will help you decide how hot, cold, wet, or windy it might be!

Date:

Astronomy

Apr. 12, 2013 Rise Set
Actual Time 6:47 AM CDT 7:39 PM CDT
Civil Twilight 6:22 AM CDT 8:04 PM CDT
Nautical Twilight 5:52 AM CDT 8:33 PM CDT
Astronomical Twilight 5:22 AM CDT 9:04 PM CDT
Moon 8:05 AM CDT 10:01 PM CDT
Length of Visible Light 13h 42m
Length of Day
12h 52m
Waxing Crescent, 5% of the Moon is Illuminated
Apr 12
Waxing Crescent
Apr 18
First Quarter
Apr 25
Full
May 2
Last Quarter
May 9
New

Hourly Weather History & Observations

Time (CDT) Temp. Dew Point Humidity Pressure Visibility Wind Dir Wind Speed Gust Speed Precip Events Conditions
12:15 AM 44.4 °F 44.1 °F 99% 29.88 in 10.0 mi Calm Calm - N/A   Clear
12:35 AM 45.0 °F 44.8 °F 99% 29.89 in 10.0 mi Calm Calm - N/A   Clear
12:55 AM 44.2 °F 44.1 °F 99% 29.90 in 10.0 mi Calm Calm - N/A   Clear
1:15 AM 43.5 °F 43.2 °F 99% 29.90 in 10.0 mi Calm Calm - N/A   Clear
1:35 AM 44.4 °F 44.4 °F 100% 29.90 in 10.0 mi Calm Calm - N/A   Clear
1:55 AM 44.2 °F 44.2 °F 100% 29.89 in 5.0 mi Calm Calm - N/A   Clear
2:15 AM 44.2 °F 44.2 °F 100% 29.90 in 5.0 mi Calm Calm - N/A   Clear
2:35 AM 42.8 °F 42.8 °F 100% 29.90 in 10.0 mi Calm Calm - N/A   Clear
2:55 AM 43.2 °F 43.2 °F 100% 29.90 in 5.0 mi Calm Calm - N/A   Clear
3:15 AM 42.8 °F 42.8 °F 100% 29.91 in 7.0 mi Calm Calm - N/A   Clear
3:35 AM 42.1 °F 42.1 °F 100% 29.91 in 7.0 mi Calm Calm - N/A   Clear
3:55 AM 42.1 °F 42.1 °F 100% 29.91 in 2.0 mi Calm Calm - N/A   Clear
4:15 AM 41.2 °F 41.2 °F 100% 29.91 in 10.0 mi Calm Calm - N/A   Clear
4:35 AM 39.9 °F 39.9 °F 100% 29.92 in 7.0 mi Calm Calm - N/A   Clear
4:55 AM 41.2 °F 41.2 °F 100% 29.93 in 7.0 mi Calm Calm - N/A   Clear
5:15 AM 40.6 °F 40.6 °F 100% 29.93 in 10.0 mi Calm Calm - N/A   Clear
5:35 AM 40.1 °F 40.1 °F 100% 29.93 in 7.0 mi Calm Calm - N/A   Clear
5:55 AM 39.9 °F 39.9 °F 100% 29.94 in 7.0 mi Calm Calm - N/A   Clear
6:15 AM 39.2 °F 39.2 °F 100% 29.95 in 4.0 mi Calm Calm - N/A   Clear
6:35 AM 39.6 °F 39.6 °F 100% 29.95 in 2.0 mi Calm Calm - N/A   Clear
6:55 AM 39.2 °F 39.2 °F 100% 29.96 in 1.8 mi Calm Calm - N/A   Mist
7:15 AM 40.1 °F 40.1 °F 100% 29.96 in 5.0 mi Calm Calm - N/A   Clear
7:35 AM 41.2 °F 41.2 °F 100% 29.97 in 10.0 mi Calm Calm - N/A   Clear
7:55 AM 43.0 °F 43.0 °F 100% 29.98 in 10.0 mi Calm Calm - N/A   Clear
8:15 AM 45.9 °F 45.5 °F 99% 29.99 in 10.0 mi Calm Calm - N/A   Clear
8:35 AM 47.8 °F 46.6 °F 95% 30.00 in 10.0 mi Calm Calm - N/A   Clear
8:55 AM 50.2 °F 46.0 °F 86% 30.01 in 7.0 mi Calm Calm - N/A   Clear
9:15 AM 54.0 °F 46.4 °F 76% 30.01 in 10.0 mi Calm Calm - N/A   Clear
9:35 AM 55.8 °F 46.9 °F 72% 30.01 in 10.0 mi Calm Calm - N/A   Clear
9:55 AM 57.2 °F 46.9 °F 69% 30.02 in 10.0 mi Calm Calm - N/A   Clear
10:15 AM 59.0 °F 46.2 °F 63% 30.02 in 10.0 mi Calm Calm - N/A   Clear
10:35 AM 59.4 °F 45.0 °F 59% 30.03 in 10.0 mi Calm Calm - 0.01 in   Clear
10:55 AM 61.2 °F 44.2 °F 54% 30.03 in 10.0 mi Calm Calm - 0.01 in   Clear
11:15 AM 62.1 °F 44.6 °F 53% 30.03 in 10.0 mi Calm Calm - N/A   Clear
11:35 AM 63.1 °F 44.1 °F 50% 30.03 in 10.0 mi Calm Calm - N/A   Clear
11:55 AM 64.6 °F 44.2 °F 48% 30.03 in 10.0 mi North 5.8 mph - N/A   Clear
12:15 PM 65.5 °F 42.8 °F 44% 30.02 in 10.0 mi North 6.9 mph - N/A   Clear
12:35 PM 66.2 °F 42.4 °F 42% 30.02 in 10.0 mi North 6.9 mph - N/A   Clear
12:55 PM 67.1 °F 43.0 °F 42% 30.01 in 10.0 mi North 6.9 mph - N/A   Clear
1:15 PM 67.6 °F 43.5 °F 42% 30.01 in 10.0 mi NNW 5.8 mph - N/A   Clear
1:35 PM 68.4 °F 45.1 °F 43% 30.00 in 10.0 mi North 6.9 mph - N/A   Clear
1:55 PM 69.3 °F 45.3 °F 42% 29.99 in 10.0 mi North 5.8 mph - N/A   Clear
2:15 PM 69.8 °F 44.4 °F 40% 29.98 in 10.0 mi North 3.5 mph - N/A   Clear
2:35 PM 70.9 °F 46.2 °F 41% 29.98 in 10.0 mi NNW 4.6 mph - N/A   Clear
2:55 PM 71.8 °F 45.9 °F 39% 29.97 in 10.0 mi North 5.8 mph - N/A   Clear
3:15 PM 72.1 °F 44.4 °F 37% 29.96 in 10.0 mi NNW 3.5 mph - N/A   Clear
3:35 PM 72.5 °F 44.1 °F 36% 29.96 in 10.0 mi North 4.6 mph - N/A   Clear
3:55 PM 73.4 °F 44.1 °F 35% 29.94 in 10.0 mi North 3.5 mph - N/A   Clear
4:15 PM 73.4 °F 45.0 °F 36% 29.94 in 10.0 mi North 5.8 mph - N/A   Clear
4:35 PM 73.8 °F 45.1 °F 36% 29.93 in 10.0 mi North 3.5 mph - N/A   Clear
4:55 PM 73.8 °F 46.2 °F 37% 29.93 in 10.0 mi North 4.6 mph - N/A   Clear
5:15 PM 73.9 °F 45.0 °F 35% 29.93 in 10.0 mi Calm Calm - N/A   Clear
5:35 PM 74.3 °F 46.4 °F 37% 29.93 in 10.0 mi Calm Calm - N/A   Clear
5:55 PM 73.8 °F 45.1 °F 36% 29.93 in 10.0 mi Calm Calm - N/A   Clear
6:15 PM 73.6 °F 46.4 °F 38% 29.92 in 10.0 mi Calm Calm - N/A   Clear
6:35 PM 72.9 °F 48.0 °F 41% 29.92 in 10.0 mi Calm Calm - N/A   Clear
6:55 PM 72.5 °F 48.0 °F 42% 29.92 in 10.0 mi Calm Calm - N/A   Clear
7:15 PM 69.4 °F 55.9 °F 62% 29.93 in 10.0 mi Calm Calm - N/A   Clear
7:35 PM 67.1 °F 51.3 °F 57% 29.93 in 10.0 mi Calm Calm - N/A   Clear
7:55 PM 61.9 °F 54.1 °F 76% 29.94 in 10.0 mi Calm Calm - N/A   Clear
8:15 PM 59.4 °F 54.5 °F 84% 29.94 in 10.0 mi Calm Calm - N/A   Clear
8:35 PM 58.6 °F 55.0 °F 88% 29.95 in 10.0 mi Calm Calm - N/A   Clear
8:55 PM 57.6 °F 53.6 °F 87% 29.96 in 10.0 mi Calm Calm - N/A   Clear
9:15 PM 54.9 °F 52.0 °F 90% 29.96 in 10.0 mi Calm Calm - N/A   Clear
9:35 PM 55.6 °F 53.8 °F 94% 29.97 in 10.0 mi Calm Calm - N/A   Clear
9:55 PM 54.9 °F 53.1 °F 94% 29.97 in 10.0 mi Calm Calm - N/A   Clear
10:15 PM 54.0 °F 52.5 °F 95% 29.98 in 10.0 mi Calm Calm - N/A   Clear
10:35 PM 53.6 °F 51.8 °F 94% 29.98 in 10.0 mi Calm Calm - N/A   Clear
10:55 PM 52.7 °F 51.4 °F 95% 29.99 in 10.0 mi Calm Calm - N/A   Clear
11:15 PM 52.3 °F 51.3 °F 96% 29.99 in 10.0 mi Calm Calm - N/A   Clear
11:35 PM 52.2 °F 50.9 °F 95% 29.99 in 10.0 mi Calm Calm - N/A   Clear
11:55 PM 50.9 °F 50.0 °F 97% 29.99 in 10.0 mi Calm Calm - N/A   Clear